[Iaude] MPEC T219: 2023 SN19 [a=3.61,e=0.65,i=15.6,H=19.0]

mpec at marsden.cfa.harvard.edu mpec at marsden.cfa.harvard.edu
Fri Oct 13 14:36:03 EDT 2023


M.P.E.C. 2023-T219                             Issued 2023 October 13, 18:34 UT

     The Minor Planet Electronic Circulars contain information on unusual
         minor planets, routine data on comets and natural satellites,
         and occasional editorial announcements.  They are published
    on behalf of Division F of the International Astronomical Union by the
          Minor Planet Center, Smithsonian Astrophysical Observatory,
                          Cambridge, MA 02138, U.S.A.
			  
             Prepared using the Tamkin Foundation Computer Network

                              MPC at CFA.HARVARD.EDU
            URL https://www.minorplanetcenter.net/    ISSN 1523-6714

                                   2023 SN19                                    

     The following astrometry was found among the isolated tracklets and linked
by R. Weryk.

Observations:
     K23S19N  C2023 09 07.58709200 58 01.096+17 56 31.94         22.24GVET219F51
     K23S19N  C2023 09 07.59896200 58 00.675+17 56 37.86         22.03GVET219F51
     K23S19N  C2023 09 07.61080500 58 00.227+17 56 43.46         21.07GVET219F51
     K23S19N  C2023 09 13.39383700 54 04.448+18 42 41.24         21.91GVET219F52
     K23S19N  C2023 09 13.40550500 54 03.871+18 42 46.55         22.18GVET219F52
     K23S19N  C2023 09 13.42888000 54 02.730+18 42 57.30         21.28GVET219F52
     K23S19N* C2023 09 18.35095700 49 46.388+19 19 07.62         21.72wXET219F52
     K23S19N  C2023 09 18.36375600 49 45.618+19 19 13.29         21.92wXET219F52
     K23S19N  C2023 09 18.38940300 49 44.103+19 19 24.30         21.98wXET219F52
     K23S19N  C2023 09 23.36580600 44 34.639+19 52 33.70         21.40GVET219F52
     K23S19N  C2023 09 23.37666700 44 33.923+19 52 37.44         21.57GVET219F52
     K23S19N  C2023 09 23.38754900 44 33.125+19 52 41.46         21.89GVET219F52
     K23S19N  C2023 09 23.39851800 44 32.380+19 52 45.69         21.17GVET219F52
     K23S19N  C2023 09 24.36621300 43 26.713+19 58 44.93         22.34GVET219F51
     K23S19N  C2023 09 24.36860200 43 26.546+19 58 46.03         21.30GVET219F52
     K23S19N  C2023 09 24.37779900 43 25.888+19 58 49.49         21.71GVET219F51
     K23S19N  C2023 09 24.38219000 43 25.572+19 58 50.99         21.45GVET219F52
     K23S19N  C2023 09 24.39016100 43 24.966+19 58 54.12         21.71GVET219F51
     K23S19N  C2023 09 24.39710100 43 24.466+19 58 56.39         22.79GVET219F52
     K23S19N  C2023 09 24.40183200 43 24.143+19 58 58.03         20.99GVET219F51
     K23S19N  C2023 09 27.35162100 39 53.320+20 16 12.57         21.51GVET219F51
     K23S19N  C2023 09 27.35394600 39 53.140+20 16 13.65         21.73GVET219F52
     K23S19N  C2023 09 27.36322700 39 52.432+20 16 16.88         21.87GVET219F51
     K23S19N  C2023 09 27.37709600 39 51.350+20 16 21.19         21.55GVET219F52
     K23S19N  C2023 09 27.38873900 39 50.457+20 16 25.51         22.03GVET219F52
     K23S19N  C2023 10 03.34133300 32 01.874+20 46 10.04         21.01GVET219F51
     K23S19N  C2023 10 03.34403700 32 01.626+20 46 10.49         21.41GVET219F51
     K23S19N  C2023 10 03.50052100 31 48.149+20 46 51.81         21.44GVET219F51
     K23S19N  C2023 10 03.51410800 31 46.958+20 46 55.34         21.17GVET219F51
     K23S19N  C2023 10 04.33782700 30 38.620+20 50 26.00         21.29GVET219F51
     K23S19N  C2023 10 04.34820100 30 37.711+20 50 28.56         21.07GVET219F51
     K23S19N  C2023 10 04.35959000 30 36.715+20 50 31.78         21.26GVET219F51
     K23S19N  C2023 10 04.36994400 30 35.803+20 50 34.47         21.78GVET219F51
     K23S19N  C2023 10 06.32075500 27 49.602+20 58 17.12         20.64GVET219F51
     K23S19N  C2023 10 06.32343800 27 49.341+20 58 17.62         21.47GVET219F51
     K23S19N  C2023 10 06.35793200 27 46.261+20 58 25.57         20.98GVET219F52
     K23S19N  C2023 10 06.37050400 27 45.137+20 58 28.49         20.97GVET219F52
     K23S19N  C2023 10 09.47193600 23 12.793+21 08 57.60         21.56GVET219F51
     K23S19N 1C2023 10 10.24664000 22 04.084+21 11 13.16         20.91GVET219G96
     K23S19N 1C2023 10 10.25187900 22 03.594+21 11 14.32         20.80GVET219G96
     K23S19N 1C2023 10 10.25712800 22 03.097+21 11 15.04         20.93GVET219G96
     K23S19N 1C2023 10 10.26236900 22 02.629+21 11 15.50         20.79GVET219G96
     K23S19N  C2023 10 12.28888500 19 00.911+21 16 35.99         20.96wXET219F52
     K23S19N  C2023 10 12.30172000 18 59.711+21 16 37.99         21.08wXET219F52
     K23S19N  C2023 10 12.31460600 18 58.509+21 16 39.93         21.12wXET219F52
     K23S19N  C2023 10 12.32742600 18 57.314+21 16 42.04         21.16wXET219F52

Observer details:
F51 Pan-STARRS 1, Haleakala.  Observers J. Bulger, T. Lowe, P. Minguez, A.
    Schultz, I. Smith.  Measurers K. Chambers, T. de Boer, J. Fairlamb, H.
    Gao, M. Huber, C.-C. Lin, E. Magnier, Y. Ramanjooloo, R. Wainscoat, R.
    Weryk.  1.8-m Ritchey-Chretien + CCD.
F52 Pan-STARRS 2, Haleakala.  Observers J. Bulger, T. Lowe, P. Minguez, A.
    Schultz, I. Smith.  Measurers K. Chambers, T. de Boer, J. Fairlamb, H.
    Gao, M. Huber, C.-C. Lin, E. Magnier, Y. Ramanjooloo, R. Wainscoat, R.
    Weryk, S. Chastel.  1.8-m Ritchey-Chretien + CCD.
G96 Mt. Lemmon Survey.  Observer D. Rankin.  Measurers E. C. Beshore, D. Fay,
    J. B. Fazekas, D. C. Fuls, A. R. Gibbs, A. D. Grauer, H. Groeller, J. K.
    Hogan, R. A. Kowalski, S. M. Larson, G. J. Leonard, D. Rankin, R. L.
    Seaman, F. C. Shelly, K. W. Wierzchos.  1.5-m reflector + 10K CCD.

Orbital elements:
2023 SN19                                                Earth MOID = 0.3584 AU
Epoch 2023 Sept. 13.0 TT = JDT 2460200.5                Veres                   
M 335.55115              (2000.0)            P               Q                  
n   0.14347278     Peri.  123.88394     -0.26037043     -0.96138757             
a   3.6137357      Node   340.60877     +0.77329371     -0.15238051             
e   0.6495907      Incl.   15.56908     +0.57812116     -0.22915958             
P   6.87           H   19.04          G   0.15           U   6                  
Residuals in seconds of arc
230907 F51  0.2-  0.1-    230924 F52  0.2+  0.0     231004 F51  0.1-  0.1+
230907 F51  0.1+  0.0     230924 F51  0.3-  0.2+    231006 F51  0.2+  0.0
230907 F51  0.1-  0.1-    230924 F52  0.4-  0.1-    231006 F51  0.1-  0.1-
230913 F52  0.0   0.2+    230924 F51  0.1-  0.3-    231006 F52  0.1-  0.2-
230913 F52  0.0   0.1+    230927 F51  0.1+  0.2-    231006 F52  0.0   0.1-
230913 F52  0.2+  0.0     230927 F52  0.1+  0.1+    231009 F51  0.0   0.2-
230918 F52  0.0   0.1-    230927 F51  0.2+  0.1+    231010 G96  0.1+  0.2-
230918 F52  0.2-  0.1+    230927 F52  0.1-  0.3-    231010 G96  0.0   0.1+
230918 F52  0.0   0.1+    230927 F52  0.0   0.1+    231010 G96  0.1-  0.1-
230923 F52  0.2-  0.4+    231003 F51  0.0   0.0     231010 G96  0.1+  0.5-
230923 F52  0.4+  0.0     231003 F51  0.2-  0.3-    231012 F52  0.0   0.4-
230923 F52  0.2-  0.2-    231003 F51  0.1-  0.1-    231012 F52  0.1-  0.3-
230923 F52  0.1+  0.1-    231003 F51  0.4-  0.0     231012 F52  0.1-  0.4-
230924 F51  0.1+  0.1-    231004 F51  0.1+  0.1-    231012 F52  0.1-  0.2-
230924 F52  0.2+  0.1+    231004 F51  0.0   0.3-
230924 F51  0.2+  0.1+    231004 F51  0.0   0.0

Ephemeris:
2023 SN19                a,e,i = 3.61, 0.65, 16                  q = 1.2663
Date    TT    R. A. (2000) Decl.     Delta      r    Elong.  Phase     V
2023 09 13    00 54 22.5 +18 39 40   1.3479  2.2640   147.8    13.7    22.3
...
2023 09 28    00 39 04.7 +20 19 48   1.1773  2.1484   160.5     8.9    21.7
...
2023 10 06    00 28 17.0 +20 57 05   1.1087  2.0866   163.4     7.9    21.4
...
2023 10 12    00 19 26.7 +21 15 55   1.0679  2.0402   161.8     8.8    21.3
2023 10 13    00 17 56.4 +21 18 16   1.0620  2.0325   161.2     9.1    21.3
2023 10 14    00 16 26.0 +21 20 23   1.0563  2.0247   160.6     9.4    21.3
...
2023 10 20    00 07 25.9 +21 28 41   1.0275  1.9785   155.8    11.9    21.3
...
2023 10 28    23 56 09.2 +21 29 29   1.0022  1.9170   147.7    16.1    21.3
...
2023 11 12    23 40 18.2 +21 14 16   0.9877  1.8032   131.5    24.3    21.4

M. P. C. Staff               (C) Copyright 2023 MPC           M.P.E.C. 2023-T219





More information about the Iaude mailing list